Regional Weather Roundup
Issued by NWS Bismarck, ND

Home | Current Version | Previous Version | Text Only | Print | Product List | Glossary On
Versions: 1 2 3 4 5 6 7 8 9 10 11 12 13 14 15 16 17 18 19 20 21 22 23 24 25 26 27 28 29 30 31 32 33 34 35 36 37 38 39 40 41 42 43 44 45 46 47 48 49 50
000
ASUS43 KBIS 231459
RWRBIS

NWR BROADCAST TEXT
NATIONAL WEATHER SERVICE BISMARCK ND
1000 AM CDT TUE SEP 23 2014

NOTE: "FAIR" INDICATES FEW OR NO CLOUDS BELOW 12,000 FEET WITH NO
SIGNIFICANT WEATHER AND/OR OBSTRUCTIONS TO VISIBILITY.


CITY           SKY/WX    TMP DP  RH WIND       PRES   REMARKS
WILLISTON      SUNNY     61  51  70 CALM      29.87R
MINOT          SUNNY     62  54  74 S9        29.89R
MINOT AFB      NOT AVBL
BISMARCK       PTSUNNY   66  56  70 S14       29.94R
DICKINSON      NOT AVBL
GARRISON         N/A     61  56  83 S10       29.91R
HETTINGER ARPT MOSUNNY   61  56  83 SE8       29.92S
JAMESTOWN      NOT AVBL
CARRINGTON     FAIR      57  55  94 S9        29.98S
CROSBY         FAIR      59  54  82 S6        29.87R
HARVEY         FAIR      63  55  77 S12       29.94S
HAZEN          FAIR      63  55  77 S7        29.91S
LINTON         PTSUNNY   61  57  88 S12G18    29.96R
MANDAN         CLOUDY    63  55  77 S14G20    29.95R
OAKES            N/A     63  57  82 S15G22    30.02S
RUGBY          FAIR      63  55  77 S15G21    29.93R
WATFORD CITY   FAIR      57  50  77 SE3       29.85S
$$

CITY           SKY/WX    TMP DP  RH WIND       PRES   REMARKS
GRAND FORKS    SUNNY     62  52  69 S14       30.02S
GRAND FORKS AF NOT AVBL
DEVILS LAKE    SUNNY     63  52  67 S13       29.96S
FARGO          SUNNY     63  51  65 SE14      30.05S
CAVALIER       FAIR      59  50  72 S17       29.99S
GRAFTON        FAIR      59  54  82 S14       30.01S
GWINNER        MOSUNNY   64  55  72 S6        30.05S
LANGDON        FAIR      64  54  68 S18       29.97S
ROLLA          FAIR      61  54  77 S16G23    29.94S
$$

CITY           SKY/WX    TMP DP  RH WIND       PRES   REMARKS
ABERDEEN       CLOUDY    60  56  86 SE13G20   30.03S
MOBRIDGE       PTSUNNY   63  56  78 SE15      29.93R
RAPID CITY     PTSUNNY   64  57  78 CALM      29.94R
GLASGOW        SUNNY     59  48  67 CALM      29.87R
SIDNEY         SUNNY     55  50  82 CALM      29.88S
WOLF POINT     SUNNY     55  49  80 W3        29.87R
GLENDIVE       MOSUNNY   61  52  72 CALM      29.89R
MILES CITY     PTSUNNY   62  52  69 CALM      29.90R
BAKER          MOSUNNY   66  53  63 W6        29.90S
$$

CITY           SKY/WX    TMP DP  RH WIND       PRES   REMARKS
BILLINGS       MOSUNNY   60  47  61 SW14      29.99R
GREAT FALLS    SUNNY     64  47  53 SW14      30.00R
$$



USA.gov is the U.S. government's official web portal to all federal, state and local government web resources and services.